EUTELSAT 5 WEST B

Last updated on Thu Aug 13 2026 00:03:02 GMT+0000 (Coordinated Universal Time)

1 44624U 19067A 26224.28597552 -.00000060 00000+0 00000+0 0 9997 2 44624 0.1062 300.1501 0003141 204.7183 273.8032 1.00271813 24986
UTC large
Height (km)
Speed (km/s)
/
Latitude / Longitude
Inclination (degrees)
Orbital Period (minutes)
Azimuth
Elevation
Range (km)
Doppler Factor

Next 0 passes for location: London (51.5072 / 0.1276)

No passes found over London.
EUTELSAT 5 WEST B